Wolf Point, MT

9:15 AM MDT on August 29, 2016 (GMT -0600)
Clayton

Weather History for KOLF - March, 2013

Change the Weather History Date:

Monday, March 25, 2013

  Actual Average Record
Temperature  
Mean Temperature 6 °F -  
Max Temperature 22 °F 48 °F 78 °F (2007)
Min Temperature -10 °F 22 °F -10 °F (2013)
Degree Days  
Heating Degree Days 59    
Cooling Degree Days 0    
Moisture  
Dew Point -7 °F    
Average Humidity 76    
Maximum Humidity 91    
Minimum Humidity 66    
Precipitation  
Precipitation 0.00 in 0.02 in 0.04 in (2007)
Month to date precipitation 0.50 0.34  
Year to date precipitation 0.70 0.86  
Sea Level Pressure  
Sea Level Pressure 30.40 in    
Wind  
Wind Speed 2 mph (ENE)    
Max Wind Speed 12 mph    
Max Gust Speed -    
Visibility 5 miles    
Events Fog    
T = Trace of Precipitation, MM = Missing Value Source: NWS Daily Summary

Daily Weather History Graph

Daily Weather History Graph

Search for Another Location

Airport or City:

Trip Planner

Search our weather history database for the weather conditions in past years. The results will help you decide how hot, cold, wet, or windy it might be!

Date:

Astronomy

Mar. 25, 2013 Rise Set
Actual Time 6:54 AM MDT 7:22 PM MDT
Civil Twilight 6:23 AM MDT 7:54 PM MDT
Nautical Twilight 5:46 AM MDT 8:31 PM MDT
Astronomical Twilight 5:07 AM MDT 9:09 PM MDT
Moon 5:53 PM MDT (3/25) 5:45 AM MDT (3/25)
Length of Visible Light 13h 30m
Length of Day
12h 28m
Waxing Gibbous, 97% of the Moon is Illuminated
Mar 25
Waxing Gibbous
Mar 27
Full
Apr 2
Last Quarter
Apr 10
New
Apr 18
First Quarter

Hourly Weather History & Observations

Time (MDT) Temp. Windchill Dew Point Humidity Pressure Visibility Wind Dir Wind Speed Gust Speed Precip Events Conditions
12:18 AM -5.8 °F - -9.4 °F 84% 30.39 in 10.0 mi Calm Calm - N/A   Scattered Clouds
12:26 AM -2.2 °F - -7.6 °F 78% 30.39 in 10.0 mi Calm Calm - N/A   Mostly Cloudy
12:50 AM -0.4 °F - -4.0 °F 85% 30.39 in 0.2 mi Calm Calm - N/A Fog Light Freezing Fog
12:53 AM -2.0 °F - -4.0 °F 91% 30.53 in 0.2 mi Calm Calm - N/A Fog Light Freezing Fog
1:37 AM -4.0 °F - -11.2 °F 71% 30.39 in 1.8 mi Calm Calm - N/A   Haze
1:42 AM -4.0 °F - -11.2 °F 71% 30.39 in 4.0 mi Calm Calm - N/A   Haze
1:51 AM -5.8 °F - -11.2 °F 77% 30.39 in 1.8 mi Calm Calm - N/A   Haze
1:53 AM -5.1 °F - -11.0 °F 76% 30.53 in 1.2 mi Calm Calm - N/A   Haze
2:01 AM -5.8 °F - -11.2 °F 77% 30.38 in 4.0 mi Calm Calm - N/A   Haze
2:15 AM -4.0 °F - -11.2 °F 71% 30.38 in 1.5 mi Calm Calm - N/A   Haze
2:17 AM -4.0 °F - -9.4 °F 78% 30.38 in 0.8 mi Calm Calm - N/A   Haze
2:29 AM -5.8 °F - -9.4 °F 84% 30.38 in 1.2 mi Calm Calm - N/A   Haze
2:32 AM -5.8 °F - -11.2 °F 77% 30.38 in 4.0 mi Calm Calm - N/A   Haze
2:50 AM -5.8 °F - -11.2 °F 77% 30.38 in 1.8 mi Calm Calm - N/A   Haze
2:53 AM -5.1 °F - -9.9 °F 80% 30.52 in 0.5 mi Calm Calm - N/A   Haze
3:42 AM -7.6 °F - -13.0 °F 77% 30.37 in 1.2 mi Calm Calm - N/A   Haze
3:47 AM -7.6 °F - -13.0 °F 77% 30.37 in 0.8 mi Calm Calm - N/A   Haze
3:53 AM -8.0 °F - -14.1 °F 75% 30.52 in 0.5 mi Calm Calm - N/A   Haze
4:16 AM -7.6 °F - -13.0 °F 77% 30.37 in 1.2 mi Calm Calm - N/A   Haze
4:24 AM -7.6 °F - -14.8 °F 71% 30.37 in 0.8 mi Calm Calm - N/A   Haze
4:37 AM -7.6 °F - -11.2 °F 84% 30.37 in 1.2 mi Calm Calm - N/A   Haze
4:42 AM -7.6 °F - -13.0 °F 77% 30.37 in 3.0 mi Calm Calm - N/A   Haze
4:53 AM -8.0 °F - -15.0 °F 71% 30.52 in 8.0 mi Calm Calm - N/A   Partly Cloudy
5:32 AM -9.4 °F - -16.6 °F 71% 30.36 in 2.5 mi Calm Calm - N/A   Haze
5:38 AM -9.4 °F - -14.8 °F 77% 30.37 in 5.0 mi Calm Calm - N/A   Haze
5:47 AM -9.4 °F -18.6 °F -16.6 °F 71% 30.37 in 1.8 mi ENE 3.5 mph - N/A   Haze
5:53 AM -9.0 °F -18.2 °F -14.1 °F 79% 30.52 in 0.8 mi ENE 3.5 mph - N/A   Haze
6:12 AM -9.4 °F - -14.8 °F 77% 30.37 in 1.2 mi Calm Calm - N/A   Haze
6:22 AM -9.4 °F - -16.6 °F 71% 30.36 in 3.0 mi Calm Calm - N/A   Haze
6:24 AM -9.4 °F - -16.6 °F 71% 30.36 in 1.8 mi Calm Calm - N/A   Haze
6:27 AM -9.4 °F - -14.8 °F 77% 30.36 in 0.8 mi Calm Calm - N/A   Haze
6:53 AM -9.0 °F - -14.1 °F 79% 30.52 in 0.2 mi Calm Calm - N/A   Haze
7:02 AM -9.4 °F -18.6 °F -16.6 °F 71% 30.36 in 2.0 mi East 3.5 mph - N/A   Haze
7:09 AM -9.4 °F -20.9 °F -16.6 °F 71% 30.36 in 8.0 mi East 4.6 mph - N/A   Scattered Clouds
7:23 AM -7.6 °F -18.8 °F -14.8 °F 71% 30.36 in 6.0 mi ENE 4.6 mph - N/A   Haze
7:53 AM -6.0 °F -18.6 °F -13.0 °F 72% 30.52 in 10.0 mi East 5.8 mph - N/A   Overcast
8:16 AM -4.0 °F -14.6 °F -11.2 °F 71% 30.36 in 10.0 mi NE 4.6 mph - N/A   Scattered Clouds
8:53 AM -0.9 °F -12.7 °F -9.0 °F 69% 30.52 in 3.0 mi ENE 5.8 mph - N/A   Haze
9:00 AM -0.4 °F -12.0 °F -7.6 °F 72% 30.35 in 2.5 mi East 5.8 mph - N/A   Haze
9:09 AM 1.4 °F -9.9 °F -7.6 °F 66% 30.35 in 5.0 mi East 5.8 mph - N/A   Haze
9:53 AM 3.0 °F -10.5 °F -5.1 °F 69% 30.51 in 10.0 mi East 8.1 mph - N/A   Clear
10:53 AM 7.0 °F -5.7 °F -0.9 °F 70% 30.49 in 6.0 mi East 8.1 mph - N/A   Haze
11:53 AM 9.0 °F -3.2 °F 1.9 °F 73% 30.48 in 10.0 mi East 8.1 mph - N/A   Clear
12:53 PM 12.9 °F 0.7 °F 5.0 °F 71% 30.45 in 10.0 mi East 9.2 mph - N/A   Clear
1:53 PM 14.0 °F 2.0 °F 7.0 °F 74% 30.44 in 10.0 mi ENE 9.2 mph - N/A   Clear
2:53 PM 16.0 °F 3.6 °F 9.0 °F 74% 30.41 in 10.0 mi East 10.4 mph - N/A   Clear
3:53 PM 19.0 °F 6.8 °F 12.0 °F 74% 30.38 in 10.0 mi East 11.5 mph - N/A   Clear
4:53 PM 21.0 °F 9.9 °F 14.0 °F 74% 30.36 in 10.0 mi ENE 10.4 mph - N/A   Clear
5:53 PM 21.0 °F 10.6 °F 14.0 °F 74% 30.35 in 10.0 mi NE 9.2 mph - N/A   Clear
6:53 PM 19.0 °F 7.5 °F 12.9 °F 77% 30.34 in 10.0 mi ENE 10.4 mph - N/A   Clear
7:53 PM 15.1 °F 4.2 °F 10.0 °F 80% 30.33 in 10.0 mi ENE 8.1 mph - N/A   Clear
8:53 PM 12.0 °F -0.4 °F 7.0 °F 80% 30.32 in 10.0 mi East 9.2 mph - N/A   Clear
9:53 PM 10.0 °F -0.9 °F 6.1 °F 84% 30.31 in 10.0 mi East 6.9 mph - N/A   Clear
10:53 PM 8.1 °F 1.4 °F 3.9 °F 83% 30.30 in 10.0 mi NE 3.5 mph - N/A   Clear
11:53 PM 7.0 °F -4.5 °F 3.0 °F 84% 30.29 in 10.0 mi East 6.9 mph - N/A   Clear